Location: Dappach
(48.9767°N, 9.6998°E)
Time: 09:47:17
(UTC+00:00)

Okean 2 - Pass Details

Date: 23 May 2024
Orbit: 540 x 553 km, 82.5° (Epoch: 15 June)

Event Time Altitude Azimuth Distance (km) Brightness Sun altitude
Exits shadow 00:50:27 39° 193° (SSW) 818 3.7 -17.4°
Maximum altitude 00:51:51 86° 280° (W) 550 3.2 -17.3°
Drops below altitude 10° 00:55:51 10° 9° (N) 1,816 7.2 -17.0°
Sets 00:58:01 0° 10° (N) 2,714 8.4 -16.9°
